www.pogodaiklimat.ru

Погода и климат >> Архив погоды >> Франция >> Париж Орли аэропорт


АРХИВ ПОГОДЫ в Париж Орли аэропорту

Время (UTC), дата Ветер
(напр.,м/с)
 
Видим.   Явления Облачность Т
(С)
Тd
(С)
f
(%)
Тe
(С)
Тes
(С)
Комфортность P
(гПа)
Po
(гПа)
Тmin
(С)
Tmax
(С)
R
(мм)
R24
(мм)
S
(см)
10 12.01 З 2 12 км 10/10 1080 м
[Sc]
+6.7 +4.5 86 +4 +4 тепло 1028.8 1017.6
11 12.01 З 3 20 км 10/10 840 м
[Sc]
+7.1 +4.2 82 +4 +4 тепло 1027.9 1016.7
12 12.01 З 3 17 км в посл. час морось 9/9 420 м
[Sc]
+7.3 +4.9 85 +5 +5 по сезону 1026.8 1015.7 0.0
14 12.01 З 3 25 км 10/10 450 м
[Sc]
+8.2 +5.8 85 +6 +6 тепло 1024.7 1013.6
13 12.01 З 3 20 км 10/10 400 м
[Sc]
+7.8 +5.4 85 +5 +5 тепло 1025.7 1014.6
15 12.01 З 3 21 км 10/10 500 м
[]
+8.3 +5.8 84 +6 +6 тепло 1024.6 1013.5
16 12.01 ЮЗ 2 4000 м слаб. морось 10/10 270 м
[Frnb]
+7.7 +6.2 90 +6 +6 тепло 1024.1 1013.0 0.0
17 12.01 З 3 12 км слаб. морось 10/10 210 м
[Frnb]
+7.6 +6.7 94 +5 +5 тепло 1023.7 1012.6 0.0
18 12.01 З 3 5000 м {морось} 10/10 200 м
[]
+7.9 +7.0 94 +5 +5 тепло 1023.2 1012.1 +6.1 +8.3 0.0
20 12.01 З 3 40 км в посл. час дождь 10/10 450 м
[Sc]
+8.7 +7.5 92 +6 +6 тепло 1022.3 1011.3 0.2
19 12.01 З 2 12 км в посл. час дождь 10/10 330 м
[Sc]
+8.1 +7.3 95 +6 +6 тепло 1022.8 1011.7 0.0
21 12.01 З 2 35 км {дождь} 10/9 570 м
[Sc]
+8.8 +6.8 87 +7 +7 тепло 1022.4 1011.4 0.2
22 12.01 З 2 30 км 10/9 540 м
[Sc]
+8.7 +6.3 85 +7 +7 тепло 1021.9 1010.9
23 12.01 З 2 18 км 10/10 500 м
[]
+8.7 +6.3 85 +7 +7 тепло 1021.9 1010.9
00 13.01 З 3 6000 м слаб. морось {дождь} 10/9 330 м
[Sc]
+8.1 +6.7 91 +6 +6 тепло 1021.3 1010.3 0.0
02 13.01 З 3 12 км слаб. морось {дождь} 10/10 240 м
[Sc]
+8.5 +7.6 94 +6 +6 тепло 1020.6 1009.6 0.2
01 13.01 З 3 15 км в посл. час морось 10/9 300 м
[Sc]
+8.4 +7.3 93 +6 +6 тепло 1020.9 1009.9 0.0
03 13.01 З 3 9000 м слаб. морось {дождь} 10/10 270 м
[]
+8.8 +7.9 94 +6 +6 тепло 1020.4 1009.4 0.2
04 13.01 З 4 15 км в посл. час морось 10/10 300 м
[Sc]
+9.1 +7.9 92 +6 +6 тепло 1020.0 1009.0 0.0
05 13.01 З 3 15 км 10/10 330 м
[Sc]
+9.1 +7.7 91 +7 +7 тепло 1019.7 1008.7
06 13.01 СЗ 3 25 км {дождь, морось} 10/10 300 м
[Sc]
+9.6 +7.7 88 +7 +7 тепло 1019.6 1008.6 +7.9 +9.6 0.4
08 13.01 З 3 25 км 10/10 480 м
[Sc]
+9.9 +7.7 86 +8 +8 тепло 1018.5 1007.6
07 13.01 З 3 27 км 10/10 480 м
[Sc]
+9.7 +7.5 86 +7 +7 тепло 1019.4 1008.4
09 13.01 З 4 25 км 10/10 480 м
[Sc]
+10.4 +8.0 85 +8 +8 тепло 1018.7 1007.8
10 13.01 З 4 25 км 10/10 500 м
[Sc]
+10.7 +7.9 83 +8 +8 тепло 1018.4 1007.5
11 13.01 З 5 35 км 10/10 500 м
[Sc]
+11.4 +8.3 81 +9 +9 тепло 1017.7 1006.8
12 13.01 З 5 25 км 10/10 570 м
[Sc]
+11.3 +8.0 80 +9 +9 тепло 1017.1 1006.2
14 13.01 З 5 25 км 9/6 720 м
[Sc Ac trans Ci sp]
+11.5 +7.0 74 +9 +9 тепло 1015.5 1004.6
13 13.01 З 4 25 км 10/10 660 м
[Sc]
+11.4 +7.7 78 +9 +9 тепло 1016.4 1005.5
15 13.01 З 5 27 км 9/8 720 м
[Sc Ac trans]
+10.9 +6.4 74 +8 +8 тепло 1015.6 1004.7
16 13.01 З 5 19 км 10/6 700 м
[]
+10.4 +6.3 76 +8 +8 тепло 1014.7 1003.8
17 13.01 З 4 25 км 9/8 800 м
[Sc Ac trans]
+10.3 +6.4 77 +8 +8 тепло 1014.8 1003.9
18 13.01 З 4 25 км 10/10 600 м
[Sc]
+10.2 +6.5 78 +8 +8 тепло 1014.1 1003.2 +9.6 +11.5
20 13.01 З 3 20 км 10/10 450 м
[Sc]
+9.8 +7.0 83 +8 +8 тепло 1014.4 1003.5
19 13.01 З 4 15 км 10/10 540 м
[Sc]
+10.2 +6.7 79 +8 +8 тепло 1014.6 1003.7
21 13.01 З 3 5000 м слаб. морось 10/10 300 м
[Frnb]
+9.3 +7.6 89 +7 +7 тепло 1014.4 1003.5 0.0
22 13.01 З 3 20 км в посл. час морось 10/9 360 м
[Frnb]
+9.4 +8.0 91 +7 +7 тепло 1014.5 1003.6 0.0
23 13.01 З 3 20 км 9/9 360 м
[Sc]
+9.5 +7.9 90 +7 +7 тепло 1014.5 1003.6
00 14.01 З 3 25 км {морось} 9/9 600 м
[Cu Sc]
+9.6 +7.7 88 +8 +8 тепло 1014.5 1003.6 0.0
02 14.01 СЗ 3 11 км 9/9 750 м
[]
+10.1 +6.1 76 +8 +8 тепло 1015.4 1004.5
01 14.01 З 3 25 км 8/8 600 м
[Cu Sc]
+9.5 +7.1 85 +7 +7 тепло 1014.5 1003.6
03 14.01 С 3 20 км в посл. час ливневой дождь 8/8 1500 м
[Sc]
+8.7 +5.3 79 +6 +6 тепло 1016.2 1005.2 0.6
04 14.01 СЗ 3 20 км 8/8 1500 м
[Sc]
+8.5 +4.3 75 +6 +6 тепло 1016.7 1005.7
05 14.01 СЗ 3 20 км 9/9 840 м
[Cu Sc]
+8.2 +3.8 74 +6 +6 тепло 1017.2 1006.2
06 14.01 СЗ 3 29 км {ливн. осадки, дождь} н/о +8.0 +3.6 74 +5 +5 тепло 1017.8 1006.8 +8.0 +10.3 0.6
08 14.01 З 2 20 км 9/9 1300 м
[Sc]
+8.2 +2.8 69 +6 +6 тепло 1019.3 1008.3
07 14.01 СЗ 3 30 км 10/10 1300 м
[]
+8.1 +3.0 70 +6 +6 тепло 1018.3 1007.3
09 14.01 СЗ 3 20 км 9/9 1300 м
[Sc]
+8.2 +3.2 71 +6 +6 тепло 1019.9 1008.9
10 14.01 СЗ 2 20 км 9/9 840 м
[Sc]
+8.6 +3.2 69 +7 +7 тепло 1020.4 1009.4
11 14.01 СЗ 3 20 км 9/9 870 м
[Sc]
+8.9 +3.5 69 +7 +7 тепло 1020.8 1009.8
12 14.01 СЗ 3 20 км 9/9 840 м
[Sc]
+8.9 +2.9 66 +7 +7 тепло 1021.2 1010.2
14 14.01 СЗ 2 29 км 9/9 960 м
[Cu Sc]
+9.1 +2.6 64 +8 +8 тепло 1021.7 1010.7
13 14.01 СЗ 3 19 км 9/9 930 м
[Cu Sc]
+9.0 +3.0 66 +7 +7 тепло 1021.5 1010.5
15 14.01 СЗ 3 30 км 10/10 1110 м
[]
+8.9 +2.5 64 +7 +7 тепло 1022.1 1011.1
16 14.01 З 2 20 км 9/9 960 м
[Cu Sc]
+8.4 +2.8 68 +7 +7 тепло 1022.7 1011.6
17 14.01 СЗ 2 30 км 9/9 960 м
[Cu Sc]
+8.4 +2.8 68 +7 +7 тепло 1023.3 1012.2
18 14.01 СЗ 2 29 км 10/10 600 м
[]
+8.2 +2.8 69 +7 +7 тепло 1023.9 1012.8 +8.0 +9.2
20 14.01 З 2 20 км 9/9 800 м
[Cu Sc]
+7.1 +3.2 76 +6 +6 тепло 1024.3 1013.2
19 14.01 СЗ 2 20 км 9/9 800 м
[Cu Sc]
+7.9 +3.2 72 +7 +7 тепло 1024.1 1013.0
21 14.01 З 2 19 км 9/9 800 м
[Cu Sc]
+6.7 +3.3 79 +5 +5 тепло 1024.5 1013.4
22 14.01 З 1 16 км 9/9 700 м
[Cu Sc]
+6.2 +3.2 81 +5 +5 тепло 1024.7 1013.5
23 14.01 З 2 17 км 9/9 700 м
[Cu Sc]
+5.4 +3.1 85 +3 +3 тепло 1025.1 1013.9
00 15.01 З 1 18 км 9/9 1500 м
[Sc]
+6.1 +3.4 83 +5 +5 тепло 1025.3 1014.1
02 15.01 З 2 19 км 9/9 1500 м
[Sc]
+6.2 +3.5 83 +4 +4 тепло 1025.4 1014.2
01 15.01 ЮЗ 1 18 км 9/9 1500 м
[Sc]
+5.8 +3.5 85 +6 +6 тепло 1025.2 1014.0
03 15.01 З 1 18 км 9/9 1470 м
[Sc]
+6.1 +3.4 83 +5 +5 тепло 1025.4 1014.2
04 15.01 З 1 19 км 9/9 1380 м
[Sc]
+6.1 +3.6 84 +5 +5 тепло 1025.0 1013.8
05 15.01 З 2 18 км 9/9 1470 м
[Sc]
+6.0 +3.3 83 +4 +4 тепло 1024.9 1013.7
06 15.01 З 2 18 км 9/9 1000 м
[Sc]
+5.9 +2.9 81 +3 +3 по сезону 1024.6 1013.4 +5.4 +8.2
08 15.01 З 2 25 км 9/9 1300 м
[Sc]
+6.0 +2.1 76 +4 +4 тепло 1024.9 1013.7
07 15.01 З 2 18 км 8/8 1410 м
[Sc]
+5.7 +2.3 79 +3 +3 тепло 1024.5 1013.3
09 15.01 З 2 19 км 9/9 1140 м
[Sc]
+6.7 +2.0 72 +5 +5 тепло 1025.1 1013.9
10 15.01 З 2 25 км 9/9 1140 м
[Sc]
+7.3 +1.8 68 +5 +6 тепло 1025.1 1014.0
11 15.01 З 2 19 км 9/9 1110 м
[Sc]
+7.9 +1.3 63 +7 +7 тепло 1024.8 1013.7
12 15.01 З 2 30 км 9/9 1080 м
[Sc]
+8.2 +1.6 63 +7 +7 тепло 1024.1 1013.0
14 15.01 З 2 35 км 10/10 960 м
[Sc]
+7.9 +1.3 63 +7 +7 тепло 1023.4 1012.3
13 15.01 З 2 25 км 10/10 1000 м
[Sc]
+7.9 +1.1 62 +6 +6 тепло 1023.8 1012.7
15 15.01 З 2 35 км 10/10 960 м
[Sc]
+7.8 +1.4 64 +7 +7 тепло 1023.1 1012.0
16 15.01 З 2 35 км 10/10 900 м
[Sc]
+7.6 +1.4 65 +6 +6 тепло 1023.0 1011.9
17 15.01 ЮЗ 1 35 км 10/10 900 м
[Sc]
+7.3 +1.8 68 +7 +7 тепло 1022.8 1011.7
18 15.01 ЮЗ 2 30 км 10/10 600 м
[]
+7.2 +1.7 68 +6 +6 тепло 1022.7 1011.6 +5.2 +8.4
20 15.01 ЮЗ 1 26 км 10/10 870 м
[Sc]
+6.9 +1.6 69 +6 +6 тепло 1021.9 1010.8
19 15.01 ЮЗ 1 35 км 10/10 870 м
[Sc]
+7.1 +1.6 68 +6 +6 тепло 1022.3 1011.2
21 15.01 ЮЗ 2 22 км 9/9 870 м
[Sc]
+6.8 +1.5 69 +5 +5 тепло 1021.8 1010.7
22 15.01 ЮЗ 2 27 км 9/9 800 м
[Sc]
+6.5 +1.4 70 +4 +4 тепло 1021.4 1010.3
23 15.01 ЮЗ 2 27 км 9/9 800 м
[Sc]
+6.2 +1.1 70 +5 +5 тепло 1020.6 1009.5
00 16.01 ЮЗ 1 30 км 5/3 800 м
[Sc Ci fib]
+5.0 +0.7 74 +4 +4 тепло 1019.9 1008.7
02 16.01 Ю 1 20 км 8/1 750 м
[Sc Ci fib]
+3.1 +0.5 83 +3 +3 тепло 1018.6 1007.4
01 16.01 ЮЗ 1 18 км 4/0
[]
+4.0 +0.5 78 +3 +3 тепло 1019.1 1007.9
03 16.01 Ю 1 20 км 6/0
[]
+2.3 +0.2 86 +1 +1 по сезону 1017.9 1006.6
04 16.01 Ю 1 11 км 8/0
[]
+1.6 -0.2 88 -0 -0 тепло 1017.2 1005.9
05 16.01 штиль 0 7000 м н/о +0.4 -0.9 91 -1 -1 по сезону 1016.5 1005.2
06 16.01 Ю 1 7000 м 4/0
[Ac trans Ci fib]
+0.8 -0.2 93 0 0 по сезону 1015.9 1004.6 +0.2 +7.2
08 16.01 Ю 1 15 км 8/0
[Ac trans Ci sp]
+0.8 -0.4 92 -1 -1 тепло 1015.0 1003.7
07 16.01 Ю 1 20 км 6/0
[Ac trans Ci fib]
+0.8 -0.4 92 -1 -1 по сезону 1015.3 1004.0
09 16.01 ЮВ 1 16 км 8/0
[Ac trans Ci sp]
+1.2 0.0 92 +1 +1 по сезону 1014.9 1003.6
10 16.01 Ю 2 18 км 8/0
[]
+3.1 +1.1 87 +1 +2 тепло 1014.4 1003.2
11 16.01 ЮЗ 2 20 км 8/0
[]
+4.5 +0.6 76 +2 +4 по сезону 1013.8 1002.7
12 16.01 ЮЗ 2 17 км н/о +6.2 +1.3 71 +5 +5 по сезону 1012.4 1001.4
14 16.01 ЮЗ 3 25 км 8/3 800 м
[Cu hum Ci sp]
+7.1 +1.4 67 +4 +5 тепло 1010.7 999.7
13 16.01 ЮЗ 2 25 км 8/1 700 м
[Cu hum Ci sp]
+7.1 +1.4 67 +5 +7 тепло 1011.4 1000.4
15 16.01 ЮЗ 3 25 км 10/9 750 м
[Sc]
+6.5 +1.6 71 +4 +4 по сезону 1010.6 999.6
16 16.01 ЮЗ 3 19 км 10/10 1020 м
[Sc]
+6.4 +1.3 70 +4 +4 тепло 1010.3 999.3
17 16.01 Ю 3 25 км 10/10 1110 м
[Sc]
+6.2 +1.5 72 +4 +4 тепло 1009.6 998.6
18 16.01 ЮЗ 3 25 км 10/10 600 м
[Sc]
+6.1 +2.0 75 +3 +3 по сезону 1009.4 998.4 +0.7 +7.5
20 16.01 ЮЗ 4 25 км 10/10 570 м
[Sc]
+6.2 +2.3 76 +3 +3 тепло 1008.8 997.8
19 16.01 ЮЗ 4 25 км 10/10 750 м
[Sc]
+6.1 +2.0 75 +3 +3 тепло 1009.3 998.3
21 16.01 ЮЗ 3 10 км слаб. дождь 10/10 400 м
[Sc]
+5.9 +3.2 83 +3 +3 по сезону 1008.8 997.8 0.0
22 16.01 ЮЗ 3 6000 м слаб. дождь 10/10 330 м
[Sc]
+5.9 +3.9 87 +3 +3 тепло 1008.6 997.6 0.0
23 16.01 ЮЗ 3 3800 м слаб. дождь 10/10 210 м
[Sc]
+5.8 +4.8 93 +3 +3 тепло 1008.3 997.3 0.4
00 17.01 ЮЗ 3 3100 м слаб. дождь 10/10 210 м
[Frnb]
+6.2 +5.3 94 +3 +3 по сезону 1007.8 996.8 0.6
02 17.01 З 2 14 км слаб. дождь 10/10 270 м
[Sc]
+6.2 +5.3 94 +4 +4 тепло 1008.0 997.0 0.6
01 17.01 ЮЗ 2 2700 м слаб. дождь 10/10 210 м
[Frnb]
+6.4 +5.7 95 +4 +4 тепло 1007.5 996.5 0.6
03 17.01 ЮЗ 2 35 км в посл. час дождь 9/9 1440 м
[Sc]
+5.8 +4.6 92 +3 +3 по сезону 1007.9 996.9 1
04 17.01 ЮЗ 3 35 км 1/1 1380 м
[Sc]
+5.4 +4.0 91 +2 +2 тепло 1008.0 997.0
05 17.01 ЮЗ 3 18 км 1/1 420 м
[Sc]
+5.0 +3.5 90 +2 +2 тепло 1007.8 996.8
06 17.01 ЮЗ 3 18 км {дождь} 3/3 300 м
[Sc]
+5.0 +3.5 90 +1 +1 по сезону 1007.7 996.7 +4.9 +6.5 2
08 17.01 ЮЗ 3 19 км 9/9 750 м
[Sc]
+5.4 +3.2 86 +2 +2 тепло 1008.7 997.7
07 17.01 ЮЗ 3 26 км н/о +5.0 +3.5 90 +1 +1 по сезону 1008.2 997.2
09 17.01 З 4 20 км 9/9 600 м
[Cu Sc]
+5.7 +3.2 84 +2 +2 по сезону 1009.8 998.8
10 17.01 З 4 30 км в посл. час ливневой дождь 9/9 700 м
[Cu Sc]
+6.1 +2.7 79 +2 +2 тепло 1010.7 999.7 0.0
11 17.01 СЗ 4 10 км слаб. ливневой дождь 9/9 600 м
[Cu Sc]
+5.8 +3.1 83 +2 +2 по сезону 1011.7 1000.7 0.2
12 17.01 СЗ 3 20 км {ливн. осадки, дождь} 8/8 800 м
[Cu med, cong]
+7.2 +2.7 73 +4 +5 по сезону 1011.9 1000.9 0.2
14 17.01 З 3 8000 м слаб. ливневой дождь 9/9 750 м
[Cu Sc]
+5.2 +2.2 81 +2 +2 тепло 1012.6 1001.5 0.2
13 17.01 З 3 35 км 8/8 900 м
[Cu med, cong]
+7.6 +1.6 66 +5 +6 тепло 1011.9 1000.9
15 17.01 СЗ 3 8000 м слаб. ливневой дождь 9/9 480 м
[Cb cap]
+4.7 +2.4 85 +1 +2 по сезону 1013.6 1002.5 0.8
16 17.01 СЗ 2 40 км {ливн. осадки, дождь} 10/1 1410 м
[]
+4.7 +2.4 85 +2 +2 тепло 1014.5 1003.4 0.2
17 17.01 СЗ 3 40 км н/о +4.3 +0.3 75 +1 +1 по сезону 1015.4 1004.3
18 17.01 СЗ 3 30 км {ливн. осадки, дождь} н/о +3.4 -1.2 72 0 0 по сезону 1016.5 1005.3 +3.3 +8.0 0.2
20 17.01 СЗ 1 25 км ясно +0.9 -2.2 80 -1 -1 тепло 1018.4 1007.1
19 17.01 СЗ 2 25 км ясно +2.9 -1.8 71 +1 +1 тепло 1017.5 1006.3
21 17.01 З 1 25 км ясно +1.8 -2.0 76 0 0 по сезону 1019.0 1007.7
22 17.01 СЗ 1 25 км ясно +1.7 -1.9 77 0 0 тепло 1019.6 1008.3
23 17.01 ЮЗ 1 25 км 4/0
[]
0.0 -2.9 81 -0 -0 по сезону 1019.9 1008.5
00 18.01 ЮЗ 1 25 км 9/0
[]
-0.5 -2.2 88 -3 -3 прохладно 1020.2 1008.8
02 18.01 З 1 25 км 9/0
[]
-0.4 -1.8 90 -3 -3 тепло 1020.7 1009.3
01 18.01 ЮЗ 1 15 км 9/0
[Ac trans]
-0.7 -2.4 88 -3 -3 по сезону 1020.5 1009.1
03 18.01 ЮЗ 1 25 км 9/0
[Ac trans Ci]
-0.7 -2.1 90 -1 -1 по сезону 1020.5 1009.1
04 18.01 ЮЗ 1 25 км 9/0
[Ac trans Ci]
-0.9 -2.2 91 -2 -2 тепло 1020.6 1009.2
05 18.01 З 1 25 км 9/0
[Ac trans Ci]
-1.1 -2.2 92 -3 -3 по сезону 1020.7 1009.3
06 18.01 З 1 25 км 9/0
[Ac trans Ci fib]
-1.8 -2.9 92 -4 -4 прохладно 1020.8 1009.3 -1.8 +3.4
08 18.01 ЮВ 1 5000 м 9/1 300 м
[St Ac As Ci fib]
-1.2 -2.0 94 -4 -3 по сезону 1020.5 1009.1
07 18.01 ЮЗ 1 10 км 9/0
[Ac trans Ci fib]
-1.3 -2.1 94 -4 -4 по сезону 1020.8 1009.4
09 18.01 ЮЗ 1 8000 м 9/1 240 м
[]
-0.4 -1.2 94 -1 -1 по сезону 1021.1 1009.7
10 18.01 Ю 1 16 км 6/0
[Ac trans Ci fib]
+1.4 -0.1 90 -1 +1 тепло 1021.1 1009.8
11 18.01 Ю 1 17 км 5/0
[Ac trans Ci fib]
+3.1 -0.5 77 +2 +4 по сезону 1021.1 1009.8
12 18.01 Ю 2 13 км 8/0
[Ac trans Ci fib]
+3.7 -1.5 69 +2 +4 по сезону 1020.4 1009.2
14 18.01 Ю 2 19 км 3/1 800 м
[Cu hum Ac trans Ci fib]
+5.2 -1.7 61 +4 +5 тепло 1019.1 1007.9
13 18.01 Ю 2 12 км 9/1 800 м
[]
+5.3 -1.2 63 +4 +5 тепло 1019.7 1008.5
15 18.01 ЮВ 2 25 км 3/1 870 м
[Cu hum Ac trans Ci fib]
+4.8 -1.7 63 +3 +4 по сезону 1018.7 1007.5
16 18.01 ЮВ 1 19 км 3/1 800 м
[Cu hum Ac trans Ci fib]
+3.4 -2.0 68 +2 +2 тепло 1018.7 1007.5
17 18.01 ЮВ 1 15 км 1/1 800 м
[Sc Ac trans]
+2.4 -1.6 75 +1 +1 по сезону 1018.6 1007.3
18 18.01 ЮВ 2 25 км 3/3 600 м
[Sc]
+1.2 -1.5 82 -2 -2 прохладно 1018.5 1007.2 -2.0 +5.5
20 18.01 В 1 6000 м ясно +0.6 -1.0 89 -1 -1 тепло 1017.8 1006.5
19 18.01 ЮВ 2 8000 м 5/5 750 м
[Sc]
+1.3 -1.1 84 -1 -1 по сезону 1018.2 1006.9
21 18.01 ЮВ 1 4500 м ясно -0.1 -1.4 91 -2 -2 по сезону 1017.7 1006.3
22 18.01 ЮВ 1 4200 м ясно -0.6 -1.6 93 -1 -1 тепло 1017.5 1006.1
23 18.01 ЮВ 1 4100 м ясно -1.0 -2.0 93 -3 -3 по сезону 1017.4 1006.0
00 19.01 ЮВ 1 4400 м 3/0
[]
-1.2 -2.0 94 -4 -4 прохладно 1017.0 1005.6
02 19.01 ЮВ 1 7000 м 3/0
[]
-1.7 -2.7 93 -4 -4 тепло 1015.9 1004.5
01 19.01 ЮВ 1-2
{2}
6000 м н/о -1.4 -2.2 94 -4 -4 по сезону 1016.4 1005.0
03 19.01 ЮВ 1 9000 м 5/0
[]
-1.9 -2.9 93 -3 -3 по сезону 1015.4 1004.0
04 19.01 ЮВ 1 10 км 6/0
[Ac trans Ci fib]
-1.9 -2.9 93 -4 -4 тепло 1014.9 1003.5
05 19.01 ЮВ 1 8000 м 6/0
[Ac trans]
-2.2 -3.2 93 -5 -5 по сезону 1014.3 1002.9
06 19.01 ЮВ 1 9000 м 8/0
[Ac trans]
-2.0 -3.0 93 -4 -4 прохладно 1013.7 1002.3 -2.2 +1.5
08 19.01 ЮВ 1 8000 м 8/8
[]
-2.3 -3.3 93 -5 -5 по сезону 1013.6 1002.2
07 19.01 ЮВ 1 8000 м н/о -2.3 -3.3 93 -5 -5 по сезону 1013.5 1002.1
09 19.01 ЮВ 2 9000 м 9/0
[Ac trans Ci fib]
-1.6 -2.7 92 -5 -4 холодно 1013.4 1002.0

 

Местоположение метеостанции Париж Орли аэропорт (Франция): широта 48.72 долгота 2.38 высота над уровнем моря 90 м.

В архиве по умолчанию представлена погода в Париж Орли аэропорту за последнюю неделю. Архивные данные за месяц целиком и за предыдущие месяцы, начиная с января 2011 года, Вы можете получить, выбрав интересующий диапазон дат из раскрывающегося списка и нажав кнопку "Ввод!".


*Определитесь, кто Вы:
робот инопланетянин человек

Внимание! Время в таблицах - всемирное. Для получения местного времени необходимо прибавить поправку, которая равна 1 ч.

Смотрите также архив погоды в соседних городах и на ближайших метеорологических станциях:

Погода в Париже (Франция) (12 км)
Погода в Велизи-Вилакубле (Франция) (14 км)
Погода в Мелене (Франция) (25 км)
Погода в Ле-Бурже (Франция) (28 км)
Погода в Трапе (Франция) (28 км)
Погода в Аэропорту Шарль де Голль (Франция) (35 км)
Погода в Кормее (Франция) (48 км)
Погода в Крее (Франция) (60 км)
Погода в Шартре (Франция) (70 км)
Погода в Бове (Франция) (86 км)

Пояснения к столбцам:

Ветер - указаны скорость ветра в м/с - средняя за 10 мин, порывы в срок и между сроками (в фигурных скобках) и направление, откуда дует ветер: С - северный, СВ - северо-восточный, В - восточный, ЮВ - юго-восточный, Ю - южный, ЮЗ - юго-западный, З - западный, СЗ - северо-западный.
Видимость - горизонтальная дальность видимости в метрах или километрах. При видимости от 1 до 10 км при отсутствии осадков обычно наблюдается дымка, при ухудшении видимости до 1 км и менее - туман. В сухую погоду видимость может ухудшаться дымом, пылью или мглою.
Явления - указаны атмосферные явления, наблюдавшиеся в срок или в последний час перед сроком; фигурными скобками обозначены явления, наблюдавшиеся между сроками (за 1-3 часа до срока); квадратными скобками обозначены град или гололедные отложения с указанием их диаметра в мм.
Облачность - указаны через наклонную черту общая и нижняя облачность в баллах и высота нижней границы облаков в метрах; квадратными скобками обозначены формы облаков: Ci - перистые, Cs - перисто-слоистые, Cc - перисто-кучевые, Ac - высококучевые, As - высокослоистые, Sc - слоисто-кучевые, Ns - слоисто-дождевые, Cu - кучевые, Cb - кучево-дождевые. Подробнее классификацию облаков см. в Атласе облаков (PDF).
T - Температура воздуха - температура, измеренная на высоте 2 м над землей.
Td - Температура точки росы - температура, при понижении до которой содержащийся в воздухе водяной пар достигнет насыщения.
f - Относительная влажность воздуха - влажноcть воздуха, измеренная на высоте 2 м над землей.
Te - Эффективная температура - температура, которую ощущает одетый по сезону человек в тени. Характеристика душности погоды. При расчете учитывается влияние влажности воздуха и скорости ветра на теплоощущения человека.
Tes - Эффективная температура на солнце - температура, которую ощущает человек, с поправкой на солнечный нагрев. Характеристика знойности погоды. Зависит от высоты солнца над горизонтом, облачности и скорости ветра. Ночью, в пасмурную погоду, а также при ветре 12 м/с и более поправка равна нулю.
P - Атмосферное давление - приведенное к уровню моря атмосферное давление.
Po - Атмосферное давление - измеренное на уровне метеостанции атмосферное давление.
Tmin - Минимальная температура - минимум температуры воздуха на высоте 2 м над землей.
Tmax - Максимальная температура - максимум температуры воздуха на высоте 2 м над землей.
R - Количество осадков - Количество выпавших осадков за период времени, мм. При наведении курсора мыши на число - период времени, за который выпало указанное количество осадков.
R24 - Количество осадков - Количество выпавших осадков за 24 часа, мм.
S - Снежный покров - Высота снежного покрова, см. При наведении курсора мыши на число - состояние снежного покрова и степень покрытия местности в баллах.